Regional Weather Roundup
Issued by NWS Sterling, VA

Home | Current Version | Previous Version | Text Only | Print | Product List | Glossary Off
Versions: 1 2 3 4 5 6 7 8 9 10 11 12 13 14 15 16 17 18 19 20 21 22 23 24 25 26 27 28 29 30 31 32 33 34 35 36 37 38 39 40 41 42 43 44 45 46 47 48 49 50

855
ASUS41 KLWX 220811
RWRLWX

REGIONAL WEATHER ROUNDUP
NATIONAL WEATHER SERVICE BALTIMORE MD/WASHINGTON DC
400 AM EDT TUE AUG 22 2017

Note: "FAIR" indicates few or no clouds below 12,000 feet
with no significant weather and/or obstructions to visibility.
 TC=TEMPERATURE CELSIUS

 * =Non NWS site. Station does not report precipitation (e.g. rain,
    snow, etc.), thunder, or fog.

DCZ001-MDZ009-015-VAZ040>042-051-053>054-220900-
WASHINGTON METRO

CITY           SKY/WX    TMP DP  RH WIND       PRES   REMARKS
WASHINGTON NAT MOCLDY    75  74  96 SW3       30.07F
DULLES         CLEAR     72  72 100 S5        30.06F
ANDREWS AFB    CLEAR     74  71  91 SW8       30.06F
FT BELVOIR     CLEAR     70  69  97 CALM      30.06F
QUANTICO       CLEAR     77  75  93 SW9       30.07F
COLLEGE PARK*  CLEAR     71  69  95 CALM      30.05F
LEESBURG*      CLEAR     72  72 100 CALM      30.07F
MANASSAS*      CLEAR     69  69 100 CALM      30.06F
GAITHERSBURG*  CLEAR     72  71  97 CALM      30.08F

$$

MDZ006>007-011-014-220900-
BALTIMORE METRO

CITY           SKY/WX    TMP DP  RH WIND       PRES   REMARKS
BWI AIRPORT    PTCLDY    71  71 100 CALM      30.05F
MD SCIENCE CTR   N/A     75  72  90 MISG      30.06F
MARTIN STATE   CLEAR     72  72 100 CALM      30.07F
ANNAPOLIS      CLEAR     76  75  97 CALM      30.05F
FORT MEADE*    CLEAR     68  66  94 CALM      30.08F

$$

MDZ012-015-019>023-220900-
MARYLAND EASTERN SHORE

CITY           SKY/WX    TMP DP  RH WIND       PRES   REMARKS
OCEAN CITY     PTCLDY    79  77  94 SW8       30.10F
SALISBURY      PTCLDY    75  75 100 S5        30.09F
BAY BRIDGE AP* CLEAR     79  73  83 S8        30.06F
CAMBRIDGE*     CLEAR     77  75  94 S5        30.07F
EASTON*        CLEAR    N/A N/A N/A SW6       30.11F

$$

MDZ017>025-220900-
SOUTHERN MARYLAND

CITY           SKY/WX    TMP DP  RH WIND       PRES   REMARKS
PATUXENT RIVER CLEAR     77  74  90 SW9       30.07F
ST INIGOES     CLEAR     79  75  87 S10       30.07F
LEONARDTOWN*   PTCLDY    75  72  88 SW3       30.09F

$$

MDZ003>005-220900-
NORTH CENTRAL MARYLAND

CITY           SKY/WX    TMP DP  RH WIND       PRES   REMARKS
FREDERICK*     CLEAR     72  72 100 S3        30.09F
HAGERSTOWN APT CLEAR     72  69  90 SE5       30.06F
WESTMINSTER*   CLEAR     73  72  94 S3        30.08F

$$

MDZ501>502-220900-
WESTERN MARYLAND

CITY           SKY/WX    TMP DP  RH WIND       PRES   REMARKS
OAKLAND*       CLEAR     64  63  94 SW6       30.15S
CUMBERLAND*    MOCLDY    68  68 100 CALM      30.12S VSB 1/2

$$

VAZ025>031-220900-
SHENANDOAH VALLEY

CITY           SKY/WX    TMP DP  RH WIND       PRES   REMARKS
WINCHESTER*    CLEAR     66  64  94 CALM      30.07F FOG
FRONT ROYAL*   CLEAR     70  70 100 CALM      30.07F
LURAY*         CLEAR     68  68 100 CALM      30.09F
NEW MARKET*    CLEAR     70  67  90 W5        30.09S
STAUNTON*      CLEAR     67  65  94 CALM      30.13S
WAYNESBORO*    CLEAR     69  68  98 CALM      30.13F

$$

WVZ021-048>050-054>055-220900-
EASTERN WEST VIRGINIA PANHANDLE

CITY           SKY/WX    TMP DP  RH WIND       PRES   REMARKS
MARTINSBURG    CLEAR     68  67  96 CALM      30.05F FOG
PETERSBURG*    MOCLDY    66  66  99 CALM      30.10S FOG

$$

VAZ036>039-050-220900-
CENTRAL FOOTHILLS

CITY           SKY/WX    TMP DP  RH WIND       PRES   REMARKS
CHARLOTTESVILL CLEAR     74  70  87 SW5       30.08F
CULPEPER*      CLEAR     67  67 100 CALM      30.08F FOG
ORANGE*        CLEAR     68  68 100 CALM      30.08F FOG
GORDONSVILLE*  CLEAR     69  69 100 CALM      30.08F
WARRENTON*     FOG       66  64  91 CALM      30.06F VSB 1/2

$$

VAZ055>057-220900-
NORTH AND CENTRAL PIEDMONT

CITY           SKY/WX    TMP DP  RH WIND       PRES   REMARKS
FREDERICKSBRG* CLEAR     74  74 100 CALM      30.06F
STAFFORD*      CLEAR     72  72 100 CALM      30.11F FOG

$$

NCZ024-NYZ072-PAZ021-071-VAZ022-071-220900-
OTHER REGIONAL OBSERVATIONS

CITY           SKY/WX    TMP DP  RH WIND       PRES   REMARKS
NEW YORK CITY  CLEAR     75  71  87 CALM      30.07F
PHILADELPHIA   CLOUDY    76  73  91 S8        30.06F
PITTSBURGH     MOCLDY    73  69  87 S5        30.04F
ROANOKE        CLEAR     70  70 100 CALM      30.15F
RICHMOND       CLEAR     74  72  93 CALM      30.09F
RALEIGH        PTCLDY    76  73  91 SW6       30.12F

$$

ANZ530>537-220900-
MARINE OBSERVATIONS

STATION/POSITION TIME  TEMP    WIND        PRES
                       AIR SEA DIR/SP/G
                 (UTC) (F)     (DEG/KT/KT) (MB)
THOMAS PT LIGHT  0800   78 81  210/ 12/ 14   N/A
BALT KEY BRIDGE  0736   74     190/  3/  3 1017.7F
COVE POINT       0736   78     230/ 10/ 13 1019.0F
LEWISETTA        0736   78 82  230/ 10/ 12 1018.4F
SOLOMONS ISLAND  0736   78 82  220/  8/ 10   N/A
PINEY POINT      0748          240/ 11/ 15   N/A

$$





USA.gov is the U.S. government's official web portal to all federal, state and local government web resources and services.